Time,TemperatureF,DewpointF,PressureIn,WindDirection,WindDirectionDegrees,WindSpeedMPH,WindSpeedGustMPH,Humidity,HourlyPrecipIn,Conditions,Clouds,dailyrainin,SoftwareType,DateUTC
2013-10-01 00:05:00,54.8,50.0,29.95,East,85,0.0,0.0,85,0.00,,,0.00,weatherlink.com 1.10,2013-10-01 04:05:00,
2013-10-01 00:20:00,54.3,51.0,29.95,East,85,0.0,0.0,87,0.00,,,0.00,weatherlink.com 1.10,2013-10-01 04:20:00,
2013-10-01 00:35:00,54.0,50.0,29.95,East,85,0.0,0.0,87,0.00,,,0.00,weatherlink.com 1.10,2013-10-01 04:35:00,
2013-10-01 00:50:00,53.7,50.0,29.95,East,85,0.0,0.0,88,0.00,,,0.00,weatherlink.com 1.10,2013-10-01 04:50:00,
2013-10-01 01:05:00,53.3,50.0,29.95,East,85,0.0,0.0,89,0.00,,,0.00,weatherlink.com 1.10,2013-10-01 05:05:00,
2013-10-01 01:20:00,53.1,51.0,29.95,East,85,2.0,3.0,91,0.00,,,0.00,weatherlink.com 1.10,2013-10-01 05:20:00,
2013-10-01 01:35:00,53.1,51.0,29.95,East,85,0.0,2.0,91,0.00,,,0.00,weatherlink.com 1.10,2013-10-01 05:35:00,
2013-10-01 01:50:00,52.8,51.0,29.95,East,85,1.0,3.0,92,0.00,,,0.00,weatherlink.com 1.10,2013-10-01 05:50:00,
2013-10-01 02:05:00,52.5,51.0,29.95,East,85,0.0,3.0,93,0.00,,,0.00,weatherlink.com 1.10,2013-10-01 06:05:00,
2013-10-01 02:20:00,52.3,50.0,29.95,East,85,0.0,3.0,93,0.00,,,0.00,weatherlink.com 1.10,2013-10-01 06:20:00,
2013-10-01 02:35:00,51.9,50.0,29.95,East,85,0.0,2.0,93,0.00,,,0.00,weatherlink.com 1.10,2013-10-01 06:35:00,
2013-10-01 02:50:00,51.6,50.0,29.95,East,85,0.0,1.0,93,0.00,,,0.00,weatherlink.com 1.10,2013-10-01 06:50:00,
2013-10-01 03:05:00,51.4,50.0,29.95,East,85,0.0,0.0,93,0.00,,,0.00,weatherlink.com 1.10,2013-10-01 07:05:00,
2013-10-01 03:20:00,51.2,50.0,29.94,East,85,0.0,3.0,94,0.00,,,0.00,weatherlink.com 1.10,2013-10-01 07:20:00,
2013-10-01 03:35:00,51.2,50.0,29.94,East,85,0.0,2.0,94,0.00,,,0.00,weatherlink.com 1.10,2013-10-01 07:35:00,
2013-10-01 03:50:00,51.2,50.0,29.95,East,85,0.0,2.0,94,0.00,,,0.00,weatherlink.com 1.10,2013-10-01 07:50:00,
2013-10-01 04:05:00,51.0,49.0,29.95,East,85,0.0,0.0,94,0.00,,,0.00,weatherlink.com 1.10,2013-10-01 08:05:00,
2013-10-01 04:20:00,50.8,50.0,29.95,East,85,0.0,0.0,95,0.00,,,0.00,weatherlink.com 1.10,2013-10-01 08:20:00,
2013-10-01 04:35:00,50.8,50.0,29.95,East,85,0.0,1.0,95,0.00,,,0.00,weatherlink.com 1.10,2013-10-01 08:35:00,
2013-10-01 04:50:00,50.7,49.0,29.95,East,85,0.0,2.0,95,0.00,,,0.00,weatherlink.com 1.10,2013-10-01 08:50:00,
2013-10-01 05:05:00,50.8,50.0,29.95,East,85,0.0,2.0,95,0.00,,,0.00,weatherlink.com 1.10,2013-10-01 09:05:00,
2013-10-01 05:20:00,50.7,49.0,29.95,East,85,0.0,0.0,95,0.00,,,0.00,weatherlink.com 1.10,2013-10-01 09:20:00,
2013-10-01 05:35:00,50.6,49.0,29.95,East,85,0.0,0.0,95,0.00,,,0.00,weatherlink.com 1.10,2013-10-01 09:35:00,
2013-10-01 05:50:00,50.4,49.0,29.96,East,85,0.0,1.0,95,0.00,,,0.00,weatherlink.com 1.10,2013-10-01 09:50:00,
2013-10-01 06:20:00,50.0,49.0,29.96,East,86,0.0,2.0,95,0.00,,,0.00,weatherlink.com 1.10,2013-10-01 10:20:00,
2013-10-01 06:35:00,50.0,49.0,29.96,East,85,1.0,2.0,95,0.00,,,0.00,weatherlink.com 1.10,2013-10-01 10:35:00,
2013-10-01 06:50:00,50.1,49.0,29.97,East,86,3.0,3.0,96,0.00,,,0.00,weatherlink.com 1.10,2013-10-01 10:50:00,
2013-10-01 07:05:00,49.9,49.0,29.97,SSW,198,2.0,3.0,96,0.00,,,0.00,weatherlink.com 1.10,2013-10-01 11:05:00,
2013-10-01 07:20:00,49.8,49.0,29.97,SSW,198,0.0,3.0,96,0.00,,,0.00,weatherlink.com 1.10,2013-10-01 11:20:00,
2013-10-01 07:35:00,50.0,49.0,29.98,SSW,198,2.0,4.0,96,0.00,,,0.00,weatherlink.com 1.10,2013-10-01 11:35:00,
2013-10-01 07:50:00,50.4,49.0,29.98,SSW,198,2.0,3.0,96,0.00,,,0.00,weatherlink.com 1.10,2013-10-01 11:50:00,
2013-10-01 08:06:00,51.0,50.0,29.98,SSW,204,0.0,3.0,96,0.00,,,0.00,weatherlink.com 1.10,2013-10-01 12:06:00,
2013-10-01 08:21:00,51.8,51.0,29.98,SW,215,4.0,5.0,97,0.00,,,0.00,weatherlink.com 1.10,2013-10-01 12:21:00,
2013-10-01 08:36:00,52.8,52.0,29.98,SSW,197,5.0,6.0,97,0.00,,,0.00,weatherlink.com 1.10,2013-10-01 12:36:00,
2013-10-01 08:51:00,53.9,53.0,29.98,SSW,211,4.0,5.0,97,0.00,,,0.00,weatherlink.com 1.10,2013-10-01 12:51:00,
2013-10-01 09:06:00,54.7,54.0,29.98,SSW,211,2.0,3.0,96,0.00,,,0.00,weatherlink.com 1.10,2013-10-01 13:06:00,
2013-10-01 09:21:00,55.8,55.0,29.98,SW,216,2.0,2.0,96,0.00,,,0.00,weatherlink.com 1.10,2013-10-01 13:21:00,
2013-10-01 09:36:00,56.7,55.0,29.98,NW,304,1.0,3.0,94,0.00,,,0.00,weatherlink.com 1.10,2013-10-01 13:36:00,
2013-10-01 09:51:00,58.0,56.0,29.98,WNW,295,1.0,4.0,92,0.00,,,0.00,weatherlink.com 1.10,2013-10-01 13:51:00,
2013-10-01 10:06:00,59.0,56.0,29.97,WNW,296,0.0,4.0,89,0.00,,,0.00,weatherlink.com 1.10,2013-10-01 14:06:00,
2013-10-01 10:21:00,60.5,56.0,29.98,WSW,252,2.0,5.0,86,0.00,,,0.00,weatherlink.com 1.10,2013-10-01 14:21:00,
2013-10-01 10:36:00,61.6,56.0,29.97,West,274,0.0,4.0,83,0.00,,,0.00,weatherlink.com 1.10,2013-10-01 14:36:00,
2013-10-01 10:51:00,63.1,56.0,29.97,West,276,1.0,3.0,78,0.00,,,0.00,weatherlink.com 1.10,2013-10-01 14:51:00,
2013-10-01 11:06:00,64.5,57.0,29.96,WNW,296,3.0,5.0,77,0.00,,,0.00,weatherlink.com 1.10,2013-10-01 15:06:00,
2013-10-01 11:21:00,65.6,58.0,29.96,WNW,287,0.0,5.0,75,0.00,,,0.00,weatherlink.com 1.10,2013-10-01 15:21:00,
2013-10-01 11:36:00,66.7,58.0,29.95,WSW,244,1.0,5.0,74,0.00,,,0.00,weatherlink.com 1.10,2013-10-01 15:36:00,
2013-10-01 11:52:00,67.8,58.0,29.95,West,271,3.0,6.0,70,0.00,,,0.00,weatherlink.com 1.10,2013-10-01 15:52:00,
2013-10-01 12:07:00,68.8,58.0,29.94,West,281,0.0,6.0,69,0.00,,,0.00,weatherlink.com 1.10,2013-10-01 16:07:00,
2013-10-01 12:22:00,70.4,58.0,29.94,WNW,294,3.0,7.0,65,0.00,,,0.00,weatherlink.com 1.10,2013-10-01 16:22:00,
2013-10-01 12:37:00,71.5,59.0,29.93,NW,310,1.0,4.0,64,0.00,,,0.00,weatherlink.com 1.10,2013-10-01 16:37:00,
2013-10-01 12:52:00,72.4,58.0,29.93,NW,309,0.0,6.0,61,0.00,,,0.00,weatherlink.com 1.10,2013-10-01 16:52:00,
2013-10-01 13:07:00,73.0,58.0,29.92,WSW,252,3.0,7.0,60,0.00,,,0.00,weatherlink.com 1.10,2013-10-01 17:07:00,
2013-10-01 13:22:00,73.0,58.0,29.92,West,281,4.0,7.0,60,0.00,,,0.00,weatherlink.com 1.10,2013-10-01 17:22:00,
2013-10-01 13:37:00,73.8,59.0,29.91,West,277,5.0,8.0,61,0.00,,,0.00,weatherlink.com 1.10,2013-10-01 17:37:00,
2013-10-01 13:52:00,74.8,59.0,29.90,NW,315,0.0,6.0,59,0.00,,,0.00,weatherlink.com 1.10,2013-10-01 17:52:00,
2013-10-01 14:07:00,75.5,59.0,29.90,West,261,4.0,6.0,56,0.00,,,0.00,weatherlink.com 1.10,2013-10-01 18:07:00,
2013-10-01 14:22:00,75.9,57.0,29.89,WNW,284,5.0,7.0,53,0.00,,,0.00,weatherlink.com 1.10,2013-10-01 18:22:00,
2013-10-01 14:37:00,75.8,57.0,29.89,WNW,294,2.0,5.0,53,0.00,,,0.00,weatherlink.com 1.10,2013-10-01 18:37:00,
2013-10-01 14:52:00,76.2,59.0,29.88,NW,316,1.0,5.0,55,0.00,,,0.00,weatherlink.com 1.10,2013-10-01 18:52:00,
2013-10-01 15:07:00,76.9,58.0,29.87,WSW,249,0.0,5.0,53,0.00,,,0.00,weatherlink.com 1.10,2013-10-01 19:07:00,
2013-10-01 15:22:00,77.1,59.0,29.86,West,259,2.0,7.0,53,0.00,,,0.00,weatherlink.com 1.10,2013-10-01 19:22:00,
2013-10-01 15:37:00,76.5,59.0,29.86,WSW,243,0.0,7.0,55,0.00,,,0.00,weatherlink.com 1.10,2013-10-01 19:37:00,
2013-10-01 15:52:00,76.6,59.0,29.85,SW,234,2.0,5.0,54,0.00,,,0.00,weatherlink.com 1.10,2013-10-01 19:52:00,
2013-10-01 16:07:00,76.8,58.0,29.85,West,270,3.0,5.0,53,0.00,,,0.00,weatherlink.com 1.10,2013-10-01 20:07:00,
2013-10-01 16:22:00,76.5,60.0,29.85,West,277,0.0,3.0,57,0.00,,,0.00,weatherlink.com 1.10,2013-10-01 20:22:00,
2013-10-01 16:37:00,76.8,60.0,29.85,North,355,1.0,2.0,56,0.00,,,0.00,weatherlink.com 1.10,2013-10-01 20:37:00,
2013-10-01 16:52:00,76.4,60.0,29.85,NE,49,0.0,3.0,57,0.00,,,0.00,weatherlink.com 1.10,2013-10-01 20:52:00,
2013-10-01 17:07:00,76.8,61.0,29.85,NE,49,0.0,2.0,58,0.00,,,0.00,weatherlink.com 1.10,2013-10-01 21:07:00,
2013-10-01 17:22:00,77.3,64.0,29.85,NE,49,0.0,0.0,64,0.00,,,0.00,weatherlink.com 1.10,2013-10-01 21:22:00,
2013-10-01 17:37:00,75.8,63.0,29.85,NE,49,0.0,0.0,65,0.00,,,0.00,weatherlink.com 1.10,2013-10-01 21:37:00,
2013-10-01 17:52:00,73.7,62.0,29.85,NE,49,0.0,0.0,68,0.00,,,0.00,weatherlink.com 1.10,2013-10-01 21:52:00,
2013-10-01 18:08:00,71.3,62.0,29.85,NE,49,1.0,3.0,72,0.00,,,0.00,weatherlink.com 1.10,2013-10-01 22:08:00,
2013-10-01 18:22:00,69.8,61.0,29.86,NE,49,2.0,3.0,73,0.00,,,0.00,weatherlink.com 1.10,2013-10-01 22:22:00,
2013-10-01 18:38:00,67.6,59.0,29.86,ESE,114,2.0,3.0,75,0.00,,,0.00,weatherlink.com 1.10,2013-10-01 22:38:00,
2013-10-01 18:53:00,66.6,59.0,29.86,ESE,114,2.0,3.0,76,0.00,,,0.00,weatherlink.com 1.10,2013-10-01 22:53:00,
2013-10-01 19:08:00,65.3,58.0,29.86,ESE,114,3.0,3.0,78,0.00,,,0.00,weatherlink.com 1.10,2013-10-01 23:08:00,
2013-10-01 19:23:00,64.8,58.0,29.87,ESE,114,0.0,3.0,78,0.00,,,0.00,weatherlink.com 1.10,2013-10-01 23:23:00,
2013-10-01 19:38:00,64.4,58.0,29.87,ESE,114,2.0,3.0,79,0.00,,,0.00,weatherlink.com 1.10,2013-10-01 23:38:00,
2013-10-01 19:53:00,63.9,58.0,29.88,ESE,114,1.0,3.0,81,0.00,,,0.00,weatherlink.com 1.10,2013-10-01 23:53:00,
2013-10-01 20:08:00,63.7,58.0,29.88,ESE,114,3.0,4.0,81,0.00,,,0.00,weatherlink.com 1.10,2013-10-02 00:08:00,
2013-10-01 20:23:00,63.5,58.0,29.89,ESE,114,1.0,3.0,81,0.00,,,0.00,weatherlink.com 1.10,2013-10-02 00:23:00,
2013-10-01 20:38:00,63.4,58.0,29.89,ESE,114,0.0,3.0,81,0.00,,,0.00,weatherlink.com 1.10,2013-10-02 00:38:00,
2013-10-01 20:53:00,63.2,58.0,29.89,ESE,114,1.0,2.0,82,0.00,,,0.00,weatherlink.com 1.10,2013-10-02 00:53:00,
2013-10-01 21:08:00,62.8,58.0,29.89,ESE,114,0.0,1.0,83,0.00,,,0.00,weatherlink.com 1.10,2013-10-02 01:08:00,
2013-10-01 21:23:00,62.3,57.0,29.89,ESE,114,0.0,1.0,84,0.00,,,0.00,weatherlink.com 1.10,2013-10-02 01:23:00,
2013-10-01 21:38:00,62.0,58.0,29.89,ESE,114,0.0,1.0,85,0.00,,,0.00,weatherlink.com 1.10,2013-10-02 01:38:00,
2013-10-01 21:53:00,61.7,57.0,29.90,ESE,114,0.0,1.0,85,0.00,,,0.00,weatherlink.com 1.10,2013-10-02 01:53:00,
2013-10-01 22:08:00,60.9,56.0,29.90,ESE,115,1.0,3.0,85,0.00,,,0.00,weatherlink.com 1.10,2013-10-02 02:08:00,
2013-10-01 22:23:00,60.2,56.0,29.90,ESE,116,0.0,2.0,86,0.00,,,0.00,weatherlink.com 1.10,2013-10-02 02:23:00,
2013-10-01 22:38:00,59.8,56.0,29.90,ESE,116,0.0,0.0,88,0.00,,,0.00,weatherlink.com 1.10,2013-10-02 02:38:00,
2013-10-01 22:53:00,59.9,57.0,29.90,ESE,116,2.0,3.0,89,0.00,,,0.00,weatherlink.com 1.10,2013-10-02 02:53:00,
2013-10-01 23:08:00,59.7,57.0,29.90,ESE,116,0.0,2.0,89,0.00,,,0.00,weatherlink.com 1.10,2013-10-02 03:08:00,
2013-10-01 23:23:00,59.4,56.0,29.90,ESE,116,0.0,2.0,89,0.00,,,0.00,weatherlink.com 1.10,2013-10-02 03:23:00,
2013-10-01 23:38:00,59.3,56.0,29.90,ESE,116,0.0,0.0,89,0.00,,,0.00,weatherlink.com 1.10,2013-10-02 03:38:00,
2013-10-01 23:53:00,58.9,56.0,29.91,ESE,116,0.0,0.0,89,0.00,,,0.00,weatherlink.com 1.10,2013-10-02 03:53:00,